Regional Weather Roundup
Issued by NWS

Home | Current Version | Previous Version | Text Only | Print | Product List | Glossary On
Versions: 1 2 3 4 5 6 7 8 9 10 11 12 13 14 15 16 17 18 19 20 21 22 23 24 25 26 27 28 29 30 31 32 33 34 35 36 37 38 39 40 41 42 43 44 45 46 47 48 49 50
000
ASUS43 KTOP 272059
RWRKS

WEATHER ROUNDUP FOR KANSAS
NATIONAL WEATHER SERVICE GOODLAND KS
400 PM CDT MON JUL 27 2015

NOTE:  "FAIR" INDICATES FEW OR NO CLOUDS BELOW 12,000 FEET WITH NO
SIGNIFICANT WEATHER AND/OR OBSTRUCTIONS TO VISIBILITY.

KSZ001>006-013>018-027>032-041>047-272200-
NORTHWEST KANSAS

CITY           SKY/WX    TMP DP  RH WIND       PRES   REMARKS
GOODLAND       SUNNY     91  68  46 S21G29    29.84F HX  95
HAYS           SUNNY     95  70  43 S24G32    29.83F HX 101
HILL CITY        N/A    N/A N/A N/A MISG        N/A
RUSSELL        SUNNY     94  70  45 S22G30    29.82F HX 100
$$

KSZ061>065-074>080-084>089-272200-
SOUTHWEST KANSAS

CITY           SKY/WX    TMP DP  RH WIND       PRES   REMARKS
DODGE CITY     SUNNY     95  65  37 S24G31    29.85F HX  97
ELKHART          N/A     95  66  38 S15         N/A  HX  98
GARDEN CITY    SUNNY     93  68  43 S20G33    29.84F HX  97
GREAT BEND     SUNNY     97  66  36 S26G32    29.83F HX 100
LIBERAL        SUNNY     99  66  34 S20G29    29.85F HX 102
$$

KSZ066>073-081>083-090>101-272200-
SOUTHEAST KANSAS

CITY           SKY/WX    TMP DP  RH WIND       PRES   REMARKS
CHANUTE        SUNNY     95  73  48 S14G21    29.91F HX 104
COFFEYVILLE    MOSUNNY   94  73  50 S13       29.89F HX 103
HUTCHINSON     MOSUNNY  100  64  30 S20       29.87F HX 102
NEWTON         PTSUNNY   97  61  30 S16G23    29.91F HX  97
PARSONS        MOSUNNY   94  75  54 S8        29.91F HX 105
WICHITA INTL   MOSUNNY   96  63  33 S18G26    29.87F HX  97
WICHITA JABRA  MOSUNNY   97  60  29 S17       29.88F HX  97
WINFIELD       MOSUNNY   95  66  38 S16       29.89F HX  98
$$

KSZ007>012-019>026-033>040-048>060-102>105-272200-
NORTHEAST KANSAS

CITY           SKY/WX    TMP DP  RH WIND       PRES   REMARKS
CONCORDIA      PTSUNNY   90  75  61 SE13      29.84F HX 100
EMPORIA        SUNNY     97  65  34 S17       29.88F HX  99
LAWRENCE       MOSUNNY   92  78  63 S7        29.87F HX 107
MANHATTAN      MOSUNNY   94  79  61 E9        29.84F HX 111
OLATHE IND     MOSUNNY   94  74  52 S10       29.90F HX 104
OLATHE EXE     MOSUNNY   91  76  61 S13G18    29.89F HX 103
SALINA         PTSUNNY   97  71  42 S18       29.84F HX 104
TOPEKA BILLARD PTSUNNY   94  75  54 S10G17    29.86F HX 105
TOPEKA FORBES  PTSUNNY   97  72  44 S13       29.87F HX 105
$$


USA.gov is the U.S. government's official web portal to all federal, state and local government web resources and services.